Temp_Advection
nan nan nan nan nan nan nan nan nan nan nan nan nan nan nan nan nan nan nan nan nan nan nan nan nan nan nan nan nan nan nan nan nan nan nan nan nan nan nan nan nan nan nan nan nan nan nan nan nan nan nan nan nan nan nan nan nan nan nan nan nan nan nan nan nan nan nan nan nan
nan -1 -1 -1 -1 -1 -1 -1 -0 -0 -0 -0 -0 -1 -1 -1 -1 -1 -1 -1 -1 -1 -1 -1 -0 -0 -0 -0 -0 -0 -0 -1 -1 -1 -1 -1 -1 -1 -1 -1 -1 -1 -1 -0 -0 -0 -0 0 0 0 0 -0 -1 -2 -3 -2 -1 -1 -2 -2 -3 -2 -2 -2 -3 -2 -1 -0 nan
nan -1 -1 -1 -1 -1 -1 -1 -1 -1 -0 -0 -0 -0 -1 -1 -1 -1 -1 -1 -1 -0 -0 -1 -0 -0 -0 -0 -0 -0 -0 -0 -1 -1 -1 -1 -1 -1 -1 -1 -1 -1 -1 -1 -0 -0 0 0 1 0 0 -0 -1 -2 -2 -2 -1 -1 -1 -2 -2 -2 -2 -2 -3 -2 -1 -0 nan
nan -0 -0 -1 -1 -1 -1 -1 -1 -1 -1 -1 -0 -0 -0 -1 -1 -1 -1 -1 -1 -0 -0 -1 -1 -0 -0 -0 -0 -0 -0 -0 -0 -0 -1 -1 -1 -1 -1 -1 -1 -1 -1 -1 -1 -0 0 1 1 1 0 0 -0 -1 -2 -2 -1 -1 -1 -2 -2 -2 -2 -2 -3 -3 -2 -0 nan
nan 0 0 -0 -1 -1 -1 -1 -1 -1 -1 -1 -1 -1 -1 -0 -1 -1 -1 -1 -1 -0 -0 -0 -1 -0 0 0 0 -0 -0 0 0 0 -0 -0 -0 -1 -1 -1 -1 -1 -1 -1 -1 -0 0 1 1 0 0 0 -0 -1 -1 -1 -1 -1 -1 -2 -2 -1 -2 -2 -3 -3 -2 0 nan
nan -0 1 1 0 -0 -0 -1 -1 -1 -0 -1 -1 -1 -1 -0 -0 -1 -1 -1 -1 -1 -0 -0 -0 -0 0 1 1 0 0 0 0 0 0 -0 -0 -0 -1 -1 -1 -1 -1 -1 -1 -0 0 0 0 0 0 0 -0 -1 -1 -1 -1 -1 -1 -1 -1 -1 -2 -2 -2 -2 -1 0 nan
nan -1 0 1 0 0 -0 -0 -1 -1 -0 -0 -1 -1 -0 0 -0 -0 -1 -0 -1 -1 -1 -0 -0 -0 0 -0 0 0 0 0 0 1 0 -0 -0 -0 -1 -1 -1 -1 -1 -2 -1 -1 -1 0 0 -0 -0 0 -0 -1 -1 -0 -1 -1 -1 -2 -1 -1 -1 -2 -2 -2 -1 0 nan
nan -1 -1 -0 -0 -1 -1 -1 -1 -1 -0 0 -0 -1 -1 -0 -0 -0 -1 -1 -0 -1 -1 -0 -1 -0 -0 -1 -0 0 0 0 0 0 0 0 -0 -1 -1 -1 -2 -2 -2 -2 -2 -2 -1 -0 -0 -0 -0 -0 -0 -0 -0 -0 -1 -1 -1 -1 -1 -1 -1 -1 -1 -1 -1 -1 nan
nan -1 -1 -0 -0 -1 -1 -1 -1 -1 -1 -0 -0 -1 -1 -1 -1 -1 -1 -1 -1 -0 -0 -0 -1 -1 -1 -1 -0 0 0 0 0 0 1 0 0 -0 -1 -1 -1 -2 -2 -2 -2 -2 -1 -1 -0 -0 0 0 0 -0 -0 -0 -1 -1 -1 -1 -1 -1 -1 -1 -1 -1 -1 -1 nan
nan -1 -1 -1 -0 -0 -1 -0 -0 -0 -1 -1 -1 -1 -1 -1 -1 -1 -1 -1 -0 -0 -0 -0 -0 -1 -1 -1 -1 -0 0 1 0 0 0 1 0 -0 -0 -1 -1 -2 -2 -2 -2 -2 -2 -1 -1 -0 0 0 0 -0 -0 -0 -0 -1 -1 -1 -1 -1 -1 -0 -1 -1 -2 -2 nan
nan -1 -1 -1 -1 -0 -0 -0 0 0 -0 -0 -1 -1 -1 -1 -1 -1 -1 -0 -0 -0 -0 -0 -0 -0 -0 -1 -1 -1 -0 0 0 0 0 0 0 0 -0 -0 -1 -1 -2 -2 -2 -2 -2 -1 -1 -1 -0 0 0 -0 -0 -0 -1 -1 -1 -1 -1 -1 -0 -0 -0 -1 -2 -2 nan
nan -1 -1 -1 -1 -0 -0 -0 -0 0 0 0 -0 -1 -1 -1 -1 -1 -1 -0 -0 -0 -0 -0 -0 -0 -0 -1 -1 -1 -1 -0 0 0 0 0 0 0 0 -0 -0 -1 -1 -2 -2 -2 -2 -1 -1 -1 -1 -0 -0 -0 -0 -0 -0 -1 -1 -1 -1 -0 -0 -0 -0 -0 -1 -1 nan
nan -0 -1 -1 -1 -1 -0 -0 -0 -0 0 0 0 -0 -1 -1 -1 -1 -1 -0 -0 -0 -0 -0 -0 -0 -0 -1 -1 -2 -2 -1 -1 0 -0 -0 0 0 0 -0 -0 -1 -1 -2 -2 -2 -2 -1 -1 -1 -1 -1 -1 -0 -0 -0 -0 -1 -1 -1 -1 -1 -0 -0 -0 -0 -1 -0 nan
nan -0 -0 -1 -0 -1 -1 -1 -1 -0 -0 0 0 0 -0 -0 -0 -1 -1 -0 -0 -0 -0 -0 -0 -0 -0 -1 -1 -2 -2 -2 -1 -0 -0 0 0 0 1 0 -0 -0 -0 -1 -1 -2 -2 -2 -1 -1 -1 -1 -1 -1 -0 0 0 -1 -1 -1 -1 -1 -1 -1 -1 -1 -1 -0 nan
nan -0 -0 -0 -0 -0 -1 -1 -1 -1 -0 -0 -0 0 0 -0 -0 -1 -1 -0 -0 -0 -0 -0 -0 -0 -0 -0 -1 -1 -2 -2 -2 -1 -0 0 0 0 1 1 0 0 0 -0 -1 -2 -2 -2 -2 -1 -1 -1 -1 -1 -1 -0 -0 -0 -1 -1 -1 -1 -2 -2 -1 -1 0 1 nan
nan -0 -0 -0 -0 -0 -0 -1 -1 -1 -1 -0 -0 0 0 -0 -0 -1 -1 -1 -0 -0 0 0 -0 -0 -0 -0 -1 -1 -2 -2 -2 -1 -1 -0 0 0 0 1 1 0 0 0 -0 -1 -1 -2 -2 -2 -1 -1 -1 -1 -1 -0 -0 -0 -0 -1 -1 -1 -2 -2 -1 -0 1 1 nan
nan -1 -0 -0 -0 -0 -0 -0 -0 -0 -1 -1 -0 -0 0 0 -0 -1 -1 -1 -1 -0 -0 -0 -0 -0 -1 -0 -0 -1 -1 -2 -2 -2 -1 -1 -0 0 0 0 1 0 0 -0 0 -0 -1 -1 -2 -2 -1 -1 -1 -1 -0 -0 -0 -0 -0 -0 -1 -1 -1 -1 -0 0 1 0 nan
nan -1 -1 -1 -1 -1 -1 -1 -0 -0 -1 -1 -1 -0 0 0 0 -1 -1 -1 -1 -1 -0 -0 -1 -1 -1 -1 -0 -0 -0 -1 -1 -1 -1 -1 -0 0 0 0 1 0 0 -0 0 0 0 -0 -1 -1 -1 -1 -1 -1 -0 -0 -0 -0 -0 -0 -0 -0 -0 -0 -0 0 0 0 nan
nan -1 -1 -1 -1 -1 -1 -1 -1 -1 -1 -1 -1 -0 -0 0 0 -0 -1 -1 -1 -1 -1 -1 -1 -1 -1 -1 -0 -0 0 -0 -0 -1 -1 -1 -1 -0 0 1 0 0 0 0 -0 0 0 0 0 -0 -1 -1 -1 -1 -0 -0 -0 -0 -0 -0 -0 -0 -0 -0 0 0 0 0 nan
nan -1 -1 -1 -1 -1 -1 -1 -1 -1 -1 -1 -1 -1 -0 0 0 0 -1 -1 -1 -1 -1 -1 -1 -1 -1 -1 -0 -0 0 0 -0 -0 -0 -0 -0 -0 0 0 0 -0 0 0 -0 -0 -0 -0 0 0 -0 -0 -1 -1 -1 -0 -0 -0 -0 -0 0 0 0 0 0 0 0 0 nan
nan -1 -1 -1 -1 -1 -1 -1 -1 -1 -1 -1 -1 -1 -1 -0 0 0 -0 -1 -1 -1 -1 -1 -1 -1 -1 -1 -1 -0 -0 -0 0 -0 -0 -0 -0 -0 -0 -0 0 -0 -0 0 -0 -1 -1 -1 -0 0 0 0 -0 -0 -0 -0 -0 -0 -0 -0 -0 0 0 0 0 0 0 -0 nan
nan -1 -1 -1 -1 -1 -1 -1 -1 -1 -1 -1 -1 -1 -1 -1 -1 0 0 0 -1 -1 -1 -1 -1 -1 -1 -1 -1 -1 -1 -0 -0 -0 0 0 0 -0 -0 -0 -0 -0 -0 0 -0 -1 -1 -1 -1 -1 -0 0 0 0 0 0 -0 -0 -0 -0 -0 0 0 0 0 0 0 -0 nan
nan -1 -1 -1 -1 -0 -1 -1 -1 -1 -1 -2 -2 -2 -2 -2 -1 -0 0 0 -0 -1 -1 -1 -1 -0 -1 -1 -1 -1 -1 -1 -0 -0 0 0 0 -0 -0 -1 -1 -1 -0 -0 -0 -0 -1 -1 -1 -1 -1 -1 -0 -0 0 0 -0 -0 -0 -0 0 0 0 0 0 1 1 1 nan
nan -0 -0 -0 -0 -0 -1 -1 -1 -1 -2 -2 -2 -2 -2 -2 -2 -1 -1 -0 -0 -0 -1 -1 -0 -0 -1 -1 -1 -1 -1 -1 -1 -0 -0 0 0 -0 -1 -1 -1 -1 -1 -1 -0 -0 -1 -1 -1 -1 -1 -1 -1 -1 -0 -0 -0 -0 -0 -0 0 0 0 0 0 0 1 1 nan
nan -0 -0 -0 -0 -1 -1 -1 -1 -1 -2 -2 -2 -2 -2 -2 -2 -2 -1 -1 -1 -0 -0 -0 -0 -0 -0 -1 -0 -0 -0 -0 -0 -0 -0 0 -0 -1 -1 -1 -1 -1 -1 -1 -1 -1 -1 -1 -1 -1 -1 -1 -1 -1 -1 -1 -1 -0 -0 -0 -0 0 0 0 0 0 0 1 nan
nan -1 -0 -0 -1 -1 -1 -1 -1 -1 -1 -1 -1 -2 -2 -2 -2 -2 -2 -2 -1 -1 -0 -0 -0 -0 -0 -0 -0 -0 -0 -0 -0 -0 -0 -0 -1 -1 -1 -1 -1 -0 -0 -1 -2 -2 -1 -0 -0 -1 -1 -1 -1 -1 -1 -1 -1 -1 -0 -0 -0 -0 -0 0 0 0 0 0 nan
nan -1 -1 -1 -1 -1 -1 -0 -0 -1 -1 -1 -1 -2 -2 -2 -2 -2 -2 -2 -1 -1 -1 -0 -0 -0 -0 -0 -1 -1 -1 -0 -0 -0 -0 -0 -1 -1 -1 -1 -0 -0 -0 -1 -2 -1 0 0 0 -0 -0 -1 -1 -1 -1 -1 -1 -1 -1 -1 -1 -1 -0 -0 -0 -0 0 0 nan
nan -1 -1 -1 -1 -1 -0 -0 -0 -1 -1 -1 -1 -2 -2 -2 -2 -2 -2 -2 -2 -1 -1 -1 -1 -0 -0 -1 -1 -1 -1 -0 -0 -1 -1 -1 -1 -0 -0 -1 -1 -1 -1 -2 -2 -0 1 0 0 -0 -0 -1 -0 -1 -1 -1 -1 -1 -1 -1 -1 -1 -1 -1 -0 -0 -0 0 nan
nan -1 -1 -1 -1 -0 -0 -0 -0 -1 -1 -1 -1 -1 -2 -2 -2 -2 -2 -2 -2 -2 -2 -1 -1 -1 -1 -1 -1 -1 -1 -0 -1 -1 -1 -1 -1 -0 -0 -0 -1 -1 -1 -1 -0 0 0 -0 -0 -0 -1 -1 -0 -0 -1 -1 -1 -1 -1 -1 -1 -0 -0 -0 -0 -0 -0 -0 nan
nan -1 -1 -1 -1 -0 0 -0 -1 -1 -1 -1 -1 -1 -1 -1 -2 -2 -2 -2 -2 -2 -1 -1 -1 -1 -1 -0 -1 -1 -1 -1 -1 -1 -1 -1 -1 -1 -0 -0 -0 -1 -1 -0 0 -0 -1 -1 -1 -1 -1 -1 -1 -1 -1 -1 -1 -1 -1 -0 0 0 0 0 -0 -0 -0 -1 nan
nan -1 -1 -1 -0 0 0 -0 -1 -1 -1 -1 -1 -1 -1 -1 -1 -1 -2 -2 -2 -1 -1 -1 -1 -1 -1 -0 -0 -1 -1 -1 -1 -1 -1 -1 -1 -1 -1 -0 0 0 -0 -0 -0 -1 -2 -1 -1 -1 -1 -1 -1 -1 -1 -1 -1 -1 -0 0 1 1 0 0 -0 -0 -0 -1 nan
nan -1 -1 -1 -0 0 0 -0 -0 -0 -1 -1 -0 -0 -0 -1 -1 -1 -1 -1 -1 -1 -1 -1 -1 -1 -1 -1 -1 -1 -1 -1 -1 -1 -1 -1 -1 -1 -1 -1 -0 0 -0 -0 -1 -1 -1 -1 -1 -1 -1 -0 -0 -1 -1 -1 -1 -0 -0 0 0 1 0 -0 -0 -0 -0 -1 nan
nan -1 -1 -0 -0 -0 -0 -0 -0 -0 -0 -0 -0 -0 -0 -0 -0 -0 -1 -1 -1 -1 -1 -1 -1 -1 -1 -1 -1 -1 -1 -1 -1 -1 -1 -1 -1 -1 -1 -1 -1 -0 -0 -0 -1 -0 0 -0 -0 -0 -0 -0 -0 -0 -1 -1 -0 -0 0 0 0 0 0 -0 -0 -0 -1 -0 nan
nan -1 -0 -0 -0 -0 -1 -1 -0 -0 -0 -0 -0 0 0 -0 -0 -0 -0 -1 -1 -1 -1 -1 -1 -1 -1 -1 -0 -0 -1 -1 -1 -1 -1 -1 -1 -1 -1 -1 -1 -0 -0 -1 -1 -0 1 0 0 -0 -0 -0 -0 -0 -1 -1 -0 -0 0 0 0 0 -0 -0 -0 -0 -1 -0 nan
nan -1 -0 -0 -0 -0 -1 -1 -0 -0 -0 -0 -0 -0 -0 0 -0 -0 -0 -1 -1 -0 -0 -0 -0 -0 -1 -0 0 0 -0 -1 -1 -1 -1 -1 -1 -1 -1 -1 -1 -0 -0 -0 -1 -0 0 0 0 0 0 -0 -0 -0 -0 -0 -0 -0 0 0 -0 -0 -0 -0 -0 -1 -0 -0 nan
nan -0 -0 -0 -0 -0 -1 -1 -1 -0 -0 -0 -0 -0 -0 -0 0 0 -0 -0 -0 0 0 -0 -0 -1 -1 -0 0 -0 -0 -1 -1 -1 -1 -0 -0 -1 -1 -1 -1 -1 -0 -0 -0 -1 -1 0 0 0 0 -0 -0 -0 -0 -0 -0 -0 0 -0 -0 -0 -0 -0 -0 -0 -0 -0 nan
nan -0 -0 -0 -0 -1 -1 -0 -1 -1 -0 -0 -0 -0 -0 -0 -0 0 0 -0 0 0 0 -0 -1 -1 -1 -0 -0 -1 -1 -1 -1 -1 -1 -0 -0 -0 -1 -1 -1 -1 -1 -0 0 -1 -1 -0 -0 -0 -0 -0 -0 -0 -0 -0 -0 -0 -0 -0 -0 -0 -0 -0 -0 -0 0 0 nan
nan -0 -0 -0 -1 -1 -0 0 -0 -0 -0 -0 -0 -0 -0 -0 -0 -0 -0 -0 0 0 0 -0 -0 -0 -0 -0 -1 -1 -1 -0 -0 -0 -1 -0 -0 -0 -0 -1 -1 -1 -1 -1 -0 -0 -0 -0 -0 -0 -1 -1 -0 -0 -0 -0 -0 -0 -0 0 0 0 0 -0 -0 0 0 1 nan
nan -0 -0 -0 -1 -1 -0 0 0 -0 -0 -0 -0 -0 -0 -0 -0 -0 -0 0 0 0 0 -0 0 -0 -0 -0 -1 -1 -1 -0 -0 -0 -0 -1 -0 -0 -0 -0 -1 -1 -1 -1 -1 -0 0 0 -0 -1 -1 -1 -0 -0 -0 -0 -0 -0 -0 0 0 0 -0 -0 -0 0 0 1 nan
nan -0 -0 -0 -0 -0 0 0 -0 -0 -0 -0 -0 -0 -0 -0 -0 -0 0 0 0 0 0 0 0 0 0 -0 -0 -1 -0 0 0 0 -0 -0 -1 -0 -0 -0 -0 -1 -1 -1 -1 -1 -0 0 -1 -1 -1 -1 -0 -0 -0 -0 -0 -0 -0 -0 -0 -0 -0 -0 -0 0 0 1 nan
nan nan nan nan nan nan nan nan nan nan nan nan nan nan nan nan nan nan nan nan nan nan nan nan nan nan nan nan nan nan nan nan nan nan nan nan nan nan nan nan nan nan nan nan nan nan nan nan nan nan nan nan nan nan nan nan nan nan nan nan nan nan nan nan nan nan nan nan nan
Wind_Speed
26 26 26 26 27 28 28 27 27 27 28 28 29 29 29 29 30 30 30 30 30 30 30 30 30 31 33 35 36 37 37 38 37 37 37 36 36 35 35 34 33 32 32 31 30 30 30 29 29 29 28 28 28 27 27 27 27 27 28 28 29 30 31 32 33 34 33 31 31
26 26 26 26 27 28 28 28 28 28 29 29 28 28 28 28 29 30 30 30 30 30 29 29 30 31 32 34 35 36 37 37 37 37 36 36 36 35 35 35 34 33 32 32 32 31 31 30 30 30 29 28 28 27 26 26 25 26 27 28 28 29 30 31 33 33 33 32 31
26 26 26 27 28 29 30 30 30 30 30 29 28 28 28 28 29 29 30 30 30 29 28 28 29 30 31 33 34 35 36 36 36 36 36 35 35 35 35 35 34 34 33 33 32 32 32 31 31 30 30 29 28 27 26 25 24 24 26 27 28 28 29 30 31 32 32 32 31
27 26 26 27 29 30 30 30 31 31 30 28 28 28 28 29 29 29 29 30 29 28 28 28 28 29 30 32 33 34 35 35 35 35 35 34 34 34 34 34 34 34 33 33 33 32 32 32 31 31 30 29 28 27 26 24 23 23 25 26 27 27 28 29 30 30 30 31 30
29 28 27 27 28 30 30 30 30 30 29 28 27 28 29 29 29 29 29 29 28 28 27 27 28 29 30 31 32 34 35 35 34 34 33 33 33 33 34 34 34 34 33 33 33 33 32 32 31 30 29 29 28 27 25 23 22 22 23 25 25 26 27 27 28 28 28 29 29
31 29 28 28 28 29 30 30 30 30 29 28 27 28 29 30 29 28 28 28 28 27 27 27 27 28 29 31 32 34 35 35 34 33 32 32 32 32 33 33 33 33 33 33 33 33 32 31 30 30 29 28 27 26 24 22 20 20 21 23 23 24 25 26 26 26 26 27 29
31 30 29 28 29 29 30 30 30 30 29 28 27 28 29 29 29 28 28 28 28 27 27 27 27 28 29 31 32 33 34 35 34 33 32 31 31 31 32 32 33 33 33 34 33 33 32 31 30 29 28 27 26 25 23 20 18 18 19 21 22 23 24 25 25 25 25 26 29
31 30 29 29 29 29 30 30 30 29 28 28 28 29 29 29 28 28 28 28 28 27 27 27 27 28 29 30 31 33 34 35 35 34 33 32 31 31 31 32 33 33 34 34 34 34 33 31 30 29 27 26 25 23 21 18 17 17 18 19 20 21 23 24 24 24 25 27 28
31 31 30 30 29 30 30 30 30 29 28 28 29 29 30 29 28 28 28 28 28 27 27 27 27 28 29 30 31 32 33 34 35 35 33 32 31 31 31 32 33 34 35 35 35 34 33 32 30 28 26 24 23 21 19 17 16 15 16 17 18 19 21 22 22 23 25 27 28
31 31 30 30 30 30 30 30 29 29 28 29 30 30 30 29 28 27 27 28 28 27 26 27 27 28 29 30 30 31 32 34 35 35 33 32 31 31 31 32 33 35 36 35 35 34 33 30 28 26 25 23 21 19 18 16 15 14 14 15 16 18 19 19 20 22 25 28 30
31 31 30 30 30 30 30 30 29 29 29 30 30 30 30 29 28 27 27 27 27 27 26 26 27 27 28 30 30 31 32 33 34 34 33 32 31 31 31 32 34 36 37 36 35 33 30 27 25 23 22 21 20 19 18 16 15 14 14 15 16 17 18 18 19 21 25 28 30
31 31 31 31 31 31 31 30 30 30 30 30 31 31 30 29 28 27 27 27 27 27 26 26 26 27 28 29 30 31 31 32 33 33 33 32 31 31 31 32 34 37 38 38 35 32 27 22 20 19 18 17 17 18 18 18 17 16 15 15 16 18 19 18 17 18 20 23 25
31 31 31 32 32 31 31 30 30 30 30 31 31 31 30 29 28 27 27 27 27 27 26 26 26 26 27 29 30 31 31 32 32 33 32 32 31 30 31 32 34 37 39 39 36 32 27 21 17 16 15 13 14 16 18 19 19 18 16 15 17 20 21 21 18 16 15 15 17
31 32 32 32 32 32 31 31 31 30 31 31 31 31 31 30 28 27 27 27 27 27 26 26 26 26 27 28 30 31 32 32 32 32 32 31 30 30 30 31 33 35 38 39 38 34 29 24 19 16 14 13 13 14 17 19 20 19 17 17 19 22 24 25 23 21 18 16 14
31 32 33 33 33 33 32 31 31 31 31 31 31 31 31 30 28 28 27 28 27 26 26 25 25 26 26 28 30 31 32 32 32 31 31 31 30 30 29 29 31 32 35 37 38 36 32 27 23 19 15 13 12 13 15 17 18 18 18 19 22 24 26 27 26 25 24 22 20
32 33 34 34 34 33 32 32 31 31 31 31 31 31 31 30 29 28 28 28 28 27 25 25 25 25 26 28 30 32 33 32 32 31 30 29 30 30 29 28 28 30 32 34 36 36 33 29 25 22 18 14 12 11 11 13 14 15 16 17 19 21 23 24 24 23 22 20 18
33 34 34 34 34 34 33 32 31 31 31 31 31 31 31 30 29 28 28 28 28 27 25 24 24 25 26 28 30 32 33 33 32 30 29 28 28 28 28 27 26 27 29 31 34 35 34 31 27 22 18 14 11 9 7 7 8 9 11 12 13 15 16 17 17 17 15 14 12
34 34 34 35 35 34 33 32 32 31 31 31 31 31 30 30 29 28 28 28 28 27 25 24 23 24 26 27 29 31 32 32 31 29 27 26 26 26 26 26 25 25 26 29 31 33 34 33 29 24 19 15 11 8 6 4 3 4 5 7 8 9 10 10 11 11 10 9 9
34 35 35 35 35 34 33 32 32 32 31 31 31 31 30 29 29 28 28 28 28 26 24 23 24 24 25 27 28 29 30 30 30 28 26 24 23 23 24 24 24 24 25 26 29 31 32 32 31 27 23 18 14 11 8 5 4 2 2 3 5 6 7 7 8 9 10 10 9
34 35 35 35 34 33 33 32 32 31 31 31 31 30 30 29 28 27 27 28 28 26 23 23 24 25 26 27 27 28 28 29 28 27 26 24 22 21 21 22 23 24 25 26 28 29 30 31 31 29 26 22 19 16 12 8 6 4 3 0 2 5 6 8 9 10 10 11 10
34 34 35 34 33 32 32 31 31 31 31 31 31 30 30 29 28 27 26 27 28 25 23 22 24 26 27 27 27 27 27 27 27 26 26 24 22 20 19 19 21 24 26 25 26 28 29 30 31 30 27 24 22 19 16 13 10 8 7 5 3 1 3 6 8 10 11 12 13
34 34 34 33 32 31 30 30 30 30 31 31 31 30 30 29 28 27 25 25 26 25 23 22 24 26 27 27 26 26 25 26 26 26 25 24 22 20 18 18 20 23 26 25 26 28 29 29 30 30 29 25 22 20 18 16 14 12 11 10 9 7 4 3 4 6 8 11 14
34 34 33 32 31 30 29 29 30 30 30 31 31 31 30 30 29 27 25 24 25 25 24 23 23 25 26 26 25 24 24 25 25 25 25 24 22 19 18 18 19 23 25 25 26 27 28 29 30 30 29 26 23 20 18 16 14 13 12 11 11 10 10 9 8 7 6 7 9
33 33 32 31 30 29 29 29 29 30 30 31 31 31 31 30 29 27 25 24 25 25 24 23 23 23 24 25 24 23 23 24 25 26 25 24 21 19 18 18 20 22 24 25 26 26 27 30 30 30 29 27 24 21 18 17 15 13 12 11 10 10 10 10 11 11 11 10 9
33 32 32 31 30 29 28 28 29 30 31 31 32 32 32 31 30 29 27 25 25 25 25 24 22 21 22 22 22 21 22 23 25 25 25 23 21 19 19 20 20 21 23 25 24 24 26 30 31 30 29 26 24 21 19 17 16 15 13 12 11 10 9 9 10 10 11 12 12
32 32 31 31 29 28 28 28 29 30 32 32 33 33 33 32 31 29 28 26 25 25 25 24 22 21 20 20 20 20 21 22 24 24 24 22 20 19 20 21 21 23 25 25 23 24 27 30 31 29 28 25 23 21 20 19 17 16 15 14 13 11 10 9 9 9 10 12 13
32 31 31 30 29 27 27 28 29 31 33 34 34 35 35 34 32 30 29 27 26 25 24 24 23 21 20 18 18 19 20 21 22 23 22 20 18 18 20 21 22 25 27 26 24 25 28 30 30 29 27 24 22 21 20 20 19 18 17 16 15 14 13 11 10 9 9 10 12
31 30 30 29 28 27 27 28 30 32 33 35 36 37 36 35 33 31 30 28 26 25 24 24 24 22 20 19 18 18 18 20 21 22 20 18 16 17 19 21 22 25 26 24 25 27 29 29 29 28 26 23 21 20 20 20 20 19 18 18 17 17 15 14 12 10 9 9 10
30 29 29 28 27 27 27 28 30 32 34 36 37 38 37 36 34 32 30 29 27 26 25 25 24 23 21 19 18 17 18 19 20 20 19 17 15 16 17 20 22 24 24 23 26 28 29 27 26 25 24 22 20 19 19 19 20 20 19 19 19 18 17 16 14 13 11 9 8
28 28 28 27 27 27 27 28 30 33 35 37 39 39 38 36 34 32 31 29 28 27 25 25 24 23 21 20 19 18 18 18 19 19 18 17 16 16 16 19 22 23 23 22 24 27 27 25 24 23 22 20 19 18 18 19 19 19 19 19 19 18 18 17 16 15 13 11 10
27 27 27 27 27 27 27 29 31 33 36 38 39 39 38 36 34 32 30 29 28 26 25 24 23 22 21 20 19 18 18 18 18 18 18 18 19 18 17 18 20 21 22 22 23 24 25 23 22 21 20 19 17 17 17 18 19 19 18 18 17 17 17 17 17 17 15 14 13
26 26 26 26 27 27 28 29 31 34 36 38 39 39 37 35 33 31 29 28 27 26 26 25 23 22 22 21 20 19 18 17 18 18 18 19 21 20 18 16 17 18 21 23 24 24 24 23 22 20 19 17 17 17 17 18 19 18 17 16 15 15 15 17 18 18 17 16 15
26 25 25 26 26 27 28 30 31 34 36 38 38 37 36 34 32 30 29 28 27 27 27 26 24 23 22 22 22 21 20 18 17 18 18 20 22 22 19 16 15 17 20 24 26 25 24 24 23 21 19 17 16 16 17 17 17 17 16 15 13 12 12 14 16 18 18 18 17
27 26 25 26 26 27 28 30 31 34 36 37 36 35 34 32 31 30 29 28 27 27 26 25 24 23 22 22 22 23 22 20 18 18 19 20 23 23 21 18 16 16 19 23 26 26 24 23 23 22 20 17 16 15 15 15 15 15 14 13 12 11 11 12 15 17 19 19 19
27 26 26 25 25 26 28 30 31 34 35 35 35 34 32 31 30 30 29 27 26 26 26 25 23 22 21 21 22 23 23 22 19 18 19 21 23 24 23 20 17 16 18 21 25 27 26 21 21 21 20 17 15 13 13 13 13 12 12 11 11 11 11 12 14 17 19 20 20
26 26 25 25 25 26 28 29 31 33 34 34 33 33 32 31 30 29 28 27 26 26 25 25 23 22 22 21 21 22 23 23 21 19 19 20 22 24 24 22 19 17 17 20 23 27 28 23 20 19 19 16 13 11 11 11 11 10 10 10 10 10 11 12 14 16 18 20 21
26 25 24 25 25 26 28 29 31 33 33 33 32 31 31 30 29 29 28 26 25 25 25 25 24 23 23 22 21 22 24 23 22 20 19 20 22 24 24 24 22 20 19 20 22 26 29 28 20 17 18 15 12 10 10 10 10 9 9 9 9 10 10 11 13 14 16 18 20
25 24 24 24 26 27 28 29 31 32 32 31 31 30 29 29 29 29 27 25 24 25 25 25 24 23 23 22 22 22 23 23 23 22 20 20 21 23 24 24 23 22 22 22 23 25 28 30 22 19 18 15 11 9 9 9 9 9 9 9 9 10 10 10 11 12 14 16 18
25 24 24 24 26 28 29 30 31 31 31 30 30 29 29 29 29 28 26 23 22 23 25 25 24 22 22 22 22 23 24 24 24 23 22 20 20 21 23 23 23 23 23 23 24 25 26 28 25 23 22 18 13 11 10 10 10 10 10 11 11 11 11 11 11 12 13 15 16
25 24 24 25 26 28 29 30 30 30 29 29 29 28 28 28 28 27 25 21 20 21 23 24 23 22 21 21 23 25 25 25 25 24 23 22 20 20 21 22 22 22 22 23 24 25 26 26 27 26 24 21 16 13 12 11 11 11 12 13 13 13 13 13 13 13 13 14 15
24 24 24 25 25 27 29 30 30 30 29 28 28 28 27 27 27 26 23 20 18 20 22 23 23 22 21 20 24 26 26 26 25 25 24 23 22 21 21 22 22 22 21 21 23 24 25 25 26 26 25 23 19 16 14 13 13 13 14 15 15 15 16 15 15 14 14 14 14
Wind_Direction
343 342 341 340 339 338 337 336 334 332 332 333 334 333 331 328 327 327 327 327 326 325 325 327 328 330 332 334 334 334 334 335 336 336 336 335 334 333 332 331 329 328 326 324 322 320 318 317 314 310 306 302 298 293 287 283 279 276 274 274 273 271 268 263 259 256 256 256 252
341 341 341 340 339 338 337 336 334 332 332 333 333 332 329 327 326 327 328 327 326 326 326 327 330 331 332 333 334 335 335 336 336 336 336 335 334 334 332 330 328 327 325 324 322 319 318 316 313 310 306 302 298 294 288 284 281 278 276 275 274 273 270 266 260 256 254 253 251
341 341 341 340 338 337 337 336 334 333 333 333 333 330 328 326 326 327 327 327 327 328 328 328 330 331 331 333 335 336 337 337 337 337 336 335 334 333 332 330 328 327 325 324 322 319 318 316 313 309 305 302 299 294 290 285 282 279 276 275 275 275 273 268 262 256 253 251 248
342 342 341 339 337 336 335 334 333 332 333 333 332 329 326 325 326 327 328 328 328 329 330 330 330 330 331 333 336 338 339 340 339 338 336 335 334 333 332 330 328 327 326 324 323 321 319 316 313 310 305 302 298 294 290 287 283 278 275 274 276 277 275 270 264 258 254 250 247
342 343 342 339 336 334 334 333 333 332 333 333 331 327 325 325 326 328 328 328 328 329 331 332 331 330 332 335 338 340 342 342 342 340 338 336 335 333 332 331 329 328 326 325 324 322 320 318 314 310 305 301 297 293 289 286 282 277 275 275 279 280 279 274 268 261 255 251 248
341 343 342 339 336 334 334 334 333 334 334 334 330 326 324 325 327 328 329 329 329 330 332 333 332 332 334 337 339 341 343 344 345 344 342 339 337 335 333 332 330 329 328 327 326 325 323 320 316 311 306 301 296 292 289 286 282 278 277 279 282 283 281 277 271 264 257 251 248
341 343 342 340 338 337 336 336 335 336 336 335 330 327 327 328 329 329 330 330 331 332 332 332 333 334 336 338 339 341 343 345 347 348 347 344 341 338 336 335 333 332 331 330 329 328 326 324 319 313 307 301 296 292 290 287 283 279 279 281 282 281 279 276 272 266 258 251 247
340 342 343 341 340 340 339 338 338 339 338 336 332 331 332 332 331 331 332 333 334 334 333 333 334 336 338 339 339 341 343 345 348 350 350 348 346 343 341 339 337 336 335 334 333 332 330 327 323 316 309 302 295 291 290 289 285 281 279 281 282 280 278 275 272 266 259 252 248
340 342 343 343 342 342 341 341 341 341 340 338 337 336 336 336 335 334 335 336 336 336 335 335 336 338 339 340 340 341 342 345 348 350 351 351 350 348 346 344 342 341 339 338 337 336 333 330 324 318 311 303 296 291 290 289 285 281 279 281 283 282 279 275 271 263 256 251 249
339 343 344 344 343 343 343 343 344 344 343 341 341 340 340 339 338 338 339 339 338 337 338 338 339 340 341 341 341 340 341 344 346 349 351 352 353 353 351 350 349 347 345 343 341 338 335 330 325 319 312 305 298 294 291 289 285 282 280 281 283 283 280 274 266 257 250 246 245
341 343 344 344 343 343 344 345 346 346 346 344 344 343 342 341 341 341 341 341 340 339 340 341 342 343 343 343 341 340 340 342 345 348 350 352 354 356 356 355 355 353 351 348 345 341 336 332 329 323 314 305 297 292 290 288 287 285 283 281 281 282 280 273 262 251 243 240 238
343 344 344 343 343 344 345 346 347 348 348 347 346 345 344 343 343 343 343 342 341 341 342 343 344 345 345 344 342 340 340 341 343 346 349 351 354 357 358 359 360 359 356 353 349 344 339 336 336 332 320 303 291 284 281 282 285 287 286 280 275 276 278 274 261 246 234 228 225
344 345 344 343 343 344 345 346 348 348 348 348 347 346 345 344 344 344 344 343 342 343 344 344 345 346 347 346 344 342 341 341 342 344 347 350 353 356 359 2 4 3 360 357 353 347 341 337 339 338 330 313 294 282 278 280 284 287 284 273 267 269 273 273 263 247 230 217 208
345 345 345 344 343 344 344 345 347 348 348 348 347 347 345 344 345 345 344 343 343 344 345 345 346 347 348 348 347 345 343 342 342 343 345 348 352 356 359 3 6 5 2 360 357 351 344 337 335 336 335 324 308 294 286 285 286 285 278 267 262 265 270 270 264 255 245 239 233
345 345 345 344 344 343 344 344 346 346 347 347 347 347 346 345 345 345 344 343 344 345 345 345 346 347 349 350 350 348 346 345 344 344 345 347 351 355 359 3 6 6 4 2 0 357 351 343 336 333 334 331 321 308 299 293 290 285 276 267 264 265 267 267 263 258 254 253 253
345 345 344 344 343 343 343 344 344 345 345 346 346 347 346 346 345 345 344 344 344 345 346 346 347 348 350 352 353 352 350 348 347 347 346 348 350 354 358 2 5 6 5 4 4 3 360 353 345 338 335 337 335 327 313 303 296 289 281 274 269 267 265 264 262 259 257 256 255
343 344 344 344 343 343 343 343 344 344 344 344 345 346 347 346 345 345 344 344 345 346 347 347 349 350 351 352 354 355 354 353 352 351 350 350 351 354 358 2 4 6 6 5 6 6 6 4 358 351 346 345 348 349 339 319 304 294 287 281 275 269 264 262 259 256 253 250 246
341 342 343 343 343 342 342 342 343 343 344 344 345 346 347 346 345 345 345 345 346 348 350 351 352 352 352 353 354 356 357 357 357 356 356 355 353 354 357 1 4 6 6 5 5 6 8 9 9 7 4 2 3 8 13 6 334 308 293 281 270 263 257 252 246 238 231 224 216
340 341 342 343 343 342 342 342 343 343 344 344 344 345 346 346 346 345 345 346 348 351 354 356 356 355 354 353 354 356 358 359 360 1 1 0 358 357 358 1 4 6 7 5 3 3 6 9 12 14 16 17 18 18 21 22 18 3 314 255 241 235 230 225 219 212 208 204 199
340 341 342 342 342 342 342 342 343 344 344 344 344 344 345 347 346 346 345 346 350 354 359 2 0 357 354 353 354 356 358 0 2 4 5 6 4 2 1 2 5 7 9 7 3 0 1 5 8 13 17 22 25 27 27 27 27 28 30 43 213 214 214 214 212 212 213 216 218
340 341 342 342 342 341 342 343 344 344 344 344 344 344 345 346 347 346 345 346 350 355 1 6 4 359 354 352 353 355 357 360 3 5 7 9 9 8 7 6 8 11 13 11 4 359 357 359 3 7 11 18 24 29 33 36 41 44 46 48 57 133 203 214 219 225 229 234 237
341 342 342 342 341 341 342 344 345 345 345 344 344 345 346 347 347 346 345 345 349 355 1 7 7 0 354 351 351 353 356 359 2 5 8 10 11 12 13 13 15 18 18 16 8 360 355 356 359 2 5 9 17 24 31 37 44 49 53 54 58 67 88 135 180 206 221 230 236
342 342 342 342 341 342 344 346 347 347 346 346 346 346 347 347 347 346 344 344 348 353 0 6 8 2 355 350 350 352 355 358 1 4 7 10 11 13 17 21 24 25 23 19 11 3 356 353 356 360 2 4 8 15 22 28 35 41 47 53 58 66 76 88 102 118 142 175 205
343 343 343 342 342 344 347 349 349 349 348 349 349 349 348 348 348 347 345 344 346 352 358 4 6 3 357 351 349 351 355 359 2 4 6 8 9 12 17 23 28 28 25 19 14 7 358 354 357 1 3 4 6 9 13 19 23 27 31 38 45 55 66 77 86 94 102 115 140
344 344 344 344 345 348 351 353 352 351 351 351 351 350 350 349 348 348 346 345 346 350 355 360 1 360 356 351 349 351 355 360 3 5 6 6 6 7 12 18 23 25 23 19 18 12 3 358 359 3 5 7 7 8 11 15 18 20 21 24 29 37 50 64 75 82 87 93 102
346 346 346 346 348 352 355 355 354 353 352 352 352 351 351 350 349 348 348 347 346 348 352 355 356 354 352 349 349 351 355 360 2 5 5 4 1 1 4 9 15 19 22 23 23 14 5 360 1 4 7 9 10 11 13 16 18 20 20 21 23 28 35 47 59 69 78 85 92
348 348 348 349 353 357 358 357 355 352 351 351 351 351 351 350 349 349 349 348 347 347 349 352 353 351 348 346 347 351 356 359 2 4 5 2 355 353 357 3 12 20 25 27 23 11 1 359 1 4 7 10 11 14 17 20 22 23 24 25 25 27 29 34 39 49 62 77 88
350 350 351 354 358 360 360 357 354 352 350 350 350 350 350 350 350 349 349 349 349 348 349 351 352 351 348 345 346 350 356 359 1 3 2 358 348 346 351 359 8 17 22 23 15 5 359 358 1 3 6 9 12 16 20 24 26 28 29 31 30 30 30 31 31 34 42 58 76
352 353 355 358 0 1 359 357 354 351 348 347 348 348 349 349 350 349 349 350 350 351 352 353 353 352 350 348 347 350 355 359 1 1 360 353 342 340 345 353 359 7 13 15 8 2 360 360 2 4 6 9 13 18 23 28 31 34 37 39 39 39 38 37 34 32 32 36 47
355 356 358 0 1 360 358 357 353 349 346 345 346 347 348 349 350 350 350 350 351 353 354 354 354 354 354 352 350 351 354 358 359 360 357 349 338 335 340 348 353 1 8 10 7 4 3 4 5 6 8 11 15 22 28 33 36 39 43 48 50 51 50 49 45 40 35 30 29
356 358 359 0 360 358 357 356 352 347 344 343 344 346 347 349 350 350 350 350 351 353 354 355 356 356 357 356 354 353 353 356 357 358 355 346 338 334 337 346 354 2 9 12 10 9 9 9 9 10 11 15 21 28 35 39 41 44 48 54 59 61 62 61 59 53 46 38 33
357 358 359 359 357 357 357 357 351 345 341 341 343 345 347 349 350 350 350 350 352 354 355 355 357 358 359 0 360 358 355 354 355 355 352 346 340 336 336 345 355 5 11 14 14 14 13 13 14 14 16 20 27 36 42 45 46 47 51 57 63 66 67 67 66 62 56 48 41
357 357 356 355 355 355 357 356 349 342 339 340 343 346 348 350 351 351 351 352 354 355 355 355 356 358 1 4 7 5 359 353 352 352 350 347 344 341 340 343 353 2 7 10 12 12 13 15 16 17 18 22 30 40 46 49 48 48 50 54 59 62 62 61 61 60 57 51 45
356 355 354 352 351 352 354 353 345 340 338 341 344 347 350 351 352 352 352 354 356 356 355 354 356 358 3 9 14 10 2 353 351 350 349 348 347 347 346 345 349 356 1 5 7 8 10 13 15 16 16 19 28 39 49 52 51 48 46 46 48 48 46 43 45 47 48 47 44
355 353 351 349 347 349 351 349 342 339 340 344 346 349 351 353 354 353 353 355 357 356 355 354 356 358 4 13 19 13 3 355 353 351 350 348 348 349 350 348 348 350 355 359 4 6 7 8 10 11 11 13 21 35 48 55 53 48 43 40 38 36 34 31 32 36 40 42 40
354 352 350 348 346 347 349 347 342 341 344 346 348 350 352 354 354 355 355 357 358 357 356 355 355 358 3 12 16 12 4 358 356 354 352 350 350 351 352 351 349 346 347 353 1 6 6 3 2 5 6 7 16 31 46 55 56 51 45 38 34 31 30 28 29 33 38 40 39
353 351 350 348 347 348 349 347 345 345 346 348 349 350 352 354 355 355 356 358 359 359 358 358 357 357 359 5 9 8 4 0 359 358 356 354 352 352 353 352 350 347 346 350 359 5 8 7 3 2 4 7 15 32 47 54 56 52 46 40 34 31 30 30 31 35 40 43 42
352 351 351 351 351 351 351 349 348 348 348 349 350 351 352 354 354 355 357 359 360 0 1 2 0 358 356 356 1 5 5 2 1 0 360 357 355 354 353 353 353 352 352 355 359 5 10 12 10 9 11 13 22 37 48 52 53 52 49 45 41 38 36 37 39 43 47 50 49
350 350 352 353 354 354 354 352 351 350 349 349 350 351 353 354 354 354 356 359 360 1 3 5 5 1 356 353 357 2 5 4 3 3 2 1 357 355 353 353 354 355 358 1 4 8 13 15 17 19 21 23 31 42 50 51 53 54 54 53 51 50 50 51 54 58 61 62 59
349 350 352 354 356 356 355 353 352 351 350 350 350 351 352 353 353 353 355 358 359 0 3 7 9 7 2 358 359 2 5 7 7 6 5 3 359 355 353 352 353 354 358 4 8 12 16 18 21 25 27 29 37 45 49 51 55 59 61 61 61 61 62 65 69 73 76 75 70
349 349 351 354 356 356 355 353 353 352 352 352 351 351 351 351 352 353 355 357 358 359 2 7 11 12 11 9 8 7 7 8 9 8 6 4 2 358 354 351 350 350 353 360 7 13 18 22 25 28 30 33 38 43 47 49 55 60 64 65 65 66 69 72 76 81 84 84 77
Height
1504 1503 1501 1500 1498 1496 1494 1492 1491 1489 1487 1485 1483 1481 1479 1477 1475 1473 1471 1469 1467 1465 1462 1461 1459 1456 1454 1452 1450 1447 1445 1442 1440 1438 1436 1434 1432 1430 1428 1426 1425 1423 1422 1420 1419 1418 1416 1416 1414 1413 1411 1410 1409 1408 1407 1407 1407 1407 1407 1407 1407 1407 1407 1407 1407 1407 1408 1409 1409
1504 1502 1501 1499 1497 1496 1494 1492 1490 1488 1486 1484 1482 1481 1479 1477 1475 1472 1470 1468 1467 1465 1462 1460 1458 1456 1454 1451 1450 1447 1444 1441 1439 1437 1434 1432 1431 1429 1427 1425 1423 1422 1421 1419 1418 1416 1415 1414 1412 1411 1409 1408 1406 1406 1405 1405 1405 1405 1405 1405 1405 1405 1404 1404 1404 1405 1406 1406 1406
1503 1501 1500 1498 1496 1495 1493 1491 1489 1487 1485 1483 1482 1480 1478 1476 1474 1472 1470 1468 1466 1464 1462 1460 1458 1456 1454 1451 1449 1446 1444 1441 1438 1436 1433 1431 1429 1427 1426 1424 1422 1420 1419 1417 1416 1415 1413 1412 1411 1409 1407 1406 1404 1403 1402 1402 1402 1403 1403 1402 1402 1402 1402 1402 1402 1402 1403 1404 1404
1502 1501 1499 1497 1496 1494 1492 1490 1488 1486 1484 1482 1481 1480 1478 1476 1474 1471 1469 1467 1465 1463 1461 1459 1457 1456 1453 1451 1448 1446 1443 1441 1438 1435 1433 1430 1428 1426 1424 1422 1421 1419 1417 1416 1414 1412 1411 1410 1408 1406 1405 1403 1402 1401 1400 1400 1400 1401 1401 1400 1400 1400 1400 1399 1399 1400 1401 1401 1402
1501 1500 1498 1497 1495 1493 1491 1490 1487 1485 1483 1481 1480 1479 1477 1475 1472 1470 1468 1466 1464 1462 1460 1458 1457 1455 1452 1450 1447 1445 1442 1440 1437 1435 1432 1429 1427 1425 1423 1421 1419 1417 1415 1413 1411 1410 1409 1407 1406 1404 1402 1401 1400 1399 1398 1398 1398 1398 1398 1398 1398 1398 1397 1397 1397 1397 1398 1399 1400
1501 1499 1498 1496 1495 1492 1491 1488 1486 1484 1482 1481 1479 1477 1476 1473 1471 1469 1467 1465 1462 1461 1459 1457 1456 1454 1451 1449 1446 1444 1441 1439 1436 1434 1431 1429 1426 1424 1421 1419 1417 1415 1413 1411 1409 1407 1406 1404 1403 1401 1400 1399 1397 1396 1396 1396 1396 1396 1396 1396 1396 1396 1396 1395 1395 1395 1396 1397 1397
1501 1499 1497 1496 1493 1491 1489 1487 1485 1483 1481 1480 1478 1476 1474 1471 1469 1467 1465 1463 1461 1459 1457 1456 1454 1452 1450 1447 1445 1443 1440 1438 1435 1433 1430 1428 1425 1423 1421 1418 1416 1414 1411 1409 1407 1405 1403 1401 1400 1399 1397 1396 1395 1394 1393 1394 1394 1394 1394 1394 1394 1394 1394 1393 1393 1393 1394 1394 1395
1501 1499 1497 1495 1493 1491 1488 1486 1484 1482 1480 1479 1477 1475 1472 1470 1468 1466 1464 1461 1460 1458 1456 1455 1452 1451 1449 1446 1444 1442 1440 1437 1434 1431 1429 1427 1424 1422 1419 1417 1414 1412 1410 1407 1405 1402 1400 1399 1397 1396 1395 1394 1393 1392 1392 1392 1392 1392 1393 1393 1392 1392 1392 1391 1391 1391 1391 1392 1392
1500 1498 1496 1494 1492 1490 1487 1485 1483 1481 1479 1477 1476 1473 1471 1469 1466 1464 1462 1461 1459 1457 1455 1453 1451 1449 1448 1446 1443 1441 1439 1436 1434 1431 1429 1426 1424 1421 1418 1416 1413 1411 1408 1405 1402 1400 1398 1396 1395 1394 1393 1392 1391 1391 1390 1390 1391 1391 1391 1391 1391 1391 1391 1390 1390 1390 1390 1390 1390
1499 1497 1495 1493 1491 1489 1486 1484 1482 1480 1478 1476 1474 1472 1470 1467 1465 1463 1461 1460 1458 1456 1454 1452 1450 1448 1446 1445 1442 1440 1438 1436 1433 1431 1428 1426 1424 1421 1418 1415 1412 1409 1406 1404 1401 1398 1396 1395 1393 1392 1391 1390 1389 1389 1389 1389 1389 1390 1390 1390 1391 1390 1389 1389 1389 1389 1388 1388 1388
1498 1496 1494 1492 1490 1488 1486 1483 1481 1479 1477 1475 1473 1471 1468 1466 1464 1463 1461 1459 1457 1455 1453 1451 1449 1447 1446 1444 1441 1440 1438 1436 1433 1431 1428 1426 1423 1421 1418 1415 1412 1409 1406 1403 1400 1397 1395 1394 1392 1391 1390 1389 1388 1388 1388 1388 1388 1388 1389 1389 1389 1389 1388 1388 1388 1387 1387 1386 1386
1498 1496 1494 1492 1490 1487 1485 1483 1481 1479 1476 1474 1472 1470 1467 1466 1463 1462 1460 1458 1456 1454 1452 1450 1448 1447 1445 1443 1441 1439 1437 1435 1433 1430 1428 1425 1423 1420 1417 1414 1411 1409 1406 1402 1399 1397 1395 1393 1391 1390 1389 1388 1387 1387 1387 1386 1387 1387 1387 1388 1388 1388 1387 1387 1387 1387 1386 1386 1385
1497 1495 1493 1491 1489 1486 1484 1482 1480 1478 1476 1474 1471 1469 1467 1465 1463 1461 1459 1457 1455 1453 1451 1450 1448 1446 1444 1442 1440 1438 1436 1434 1432 1430 1428 1426 1423 1420 1417 1414 1411 1408 1406 1402 1400 1397 1395 1392 1390 1388 1387 1387 1386 1386 1386 1386 1386 1386 1386 1387 1387 1386 1386 1386 1387 1387 1386 1385 1384
1497 1495 1493 1490 1488 1486 1484 1481 1479 1477 1475 1473 1471 1469 1466 1464 1462 1460 1459 1457 1455 1453 1451 1449 1447 1446 1444 1442 1440 1438 1436 1434 1432 1430 1428 1426 1423 1420 1417 1414 1411 1409 1406 1403 1400 1397 1395 1393 1390 1388 1386 1386 1385 1385 1385 1385 1385 1385 1386 1386 1385 1385 1384 1385 1385 1386 1385 1385 1385
1496 1494 1492 1490 1487 1486 1483 1481 1479 1477 1475 1472 1470 1468 1466 1464 1461 1460 1458 1456 1454 1452 1450 1448 1446 1445 1443 1441 1439 1437 1435 1433 1431 1430 1427 1425 1423 1420 1417 1414 1411 1409 1406 1404 1401 1398 1395 1393 1390 1388 1386 1385 1384 1383 1384 1384 1384 1384 1384 1384 1383 1383 1382 1382 1383 1383 1383 1383 1383
1495 1493 1491 1489 1487 1485 1483 1481 1479 1476 1474 1472 1470 1468 1466 1463 1461 1459 1457 1456 1453 1451 1450 1448 1446 1444 1442 1441 1439 1437 1435 1433 1431 1429 1427 1425 1422 1420 1417 1415 1412 1409 1407 1405 1402 1399 1396 1393 1391 1389 1387 1385 1384 1383 1383 1382 1382 1382 1382 1382 1381 1381 1381 1380 1381 1381 1381 1382 1381
1494 1492 1490 1488 1486 1484 1482 1480 1478 1476 1474 1472 1470 1468 1465 1463 1461 1459 1457 1455 1453 1451 1449 1447 1446 1444 1442 1440 1439 1437 1435 1433 1431 1429 1427 1425 1422 1420 1417 1415 1412 1410 1408 1406 1403 1400 1397 1395 1392 1390 1387 1386 1384 1383 1383 1382 1381 1381 1381 1381 1380 1380 1379 1379 1379 1380 1381 1381 1381
1493 1491 1489 1487 1485 1483 1481 1480 1478 1476 1474 1471 1469 1467 1465 1463 1461 1458 1456 1455 1453 1451 1448 1446 1445 1443 1442 1440 1438 1437 1435 1433 1431 1429 1427 1425 1423 1421 1418 1415 1413 1411 1409 1406 1404 1402 1399 1396 1394 1391 1389 1387 1385 1384 1383 1382 1382 1381 1381 1380 1380 1379 1379 1379 1379 1379 1380 1380 1380
1492 1490 1488 1486 1485 1482 1481 1479 1477 1475 1473 1471 1469 1466 1465 1462 1460 1458 1456 1454 1452 1450 1448 1446 1444 1443 1441 1440 1438 1437 1435 1433 1431 1429 1427 1425 1423 1421 1418 1416 1413 1411 1409 1407 1405 1403 1401 1399 1396 1393 1391 1388 1386 1385 1384 1383 1382 1382 1381 1381 1381 1380 1379 1379 1379 1379 1380 1380 1380
1491 1489 1487 1486 1484 1481 1480 1478 1476 1474 1472 1470 1468 1466 1464 1462 1460 1458 1456 1454 1452 1450 1448 1446 1444 1443 1441 1440 1438 1436 1435 1433 1431 1429 1427 1425 1423 1421 1418 1416 1414 1412 1410 1407 1406 1404 1402 1400 1398 1396 1393 1391 1389 1387 1385 1384 1383 1383 1382 1382 1381 1381 1380 1379 1379 1379 1380 1380 1380
1491 1489 1487 1485 1483 1481 1479 1477 1475 1473 1471 1469 1467 1465 1463 1461 1459 1457 1455 1453 1452 1450 1447 1445 1444 1443 1441 1440 1438 1436 1435 1433 1431 1429 1427 1425 1423 1421 1419 1416 1414 1412 1410 1408 1406 1404 1402 1401 1399 1397 1395 1393 1391 1389 1387 1386 1385 1384 1384 1383 1382 1381 1380 1379 1379 1379 1380 1380 1380
1490 1488 1486 1484 1482 1480 1478 1476 1475 1472 1471 1468 1466 1464 1462 1460 1458 1456 1455 1453 1451 1449 1447 1445 1444 1443 1442 1440 1438 1436 1435 1433 1431 1430 1427 1425 1423 1421 1419 1417 1415 1413 1411 1409 1407 1405 1403 1401 1400 1398 1396 1395 1393 1391 1390 1388 1387 1386 1385 1384 1383 1382 1381 1380 1380 1380 1380 1379 1379
1489 1487 1485 1483 1481 1479 1477 1476 1474 1472 1470 1467 1465 1463 1461 1460 1457 1456 1454 1452 1451 1449 1447 1445 1443 1443 1442 1440 1438 1436 1434 1433 1431 1429 1427 1426 1423 1421 1419 1417 1415 1414 1412 1409 1408 1406 1403 1401 1401 1399 1397 1396 1395 1393 1391 1390 1389 1387 1386 1385 1384 1383 1382 1381 1381 1380 1380 1380 1379
1488 1486 1484 1482 1480 1478 1477 1475 1473 1471 1469 1467 1465 1463 1461 1459 1457 1455 1453 1451 1450 1449 1447 1445 1443 1442 1441 1440 1438 1436 1434 1432 1431 1429 1427 1426 1424 1421 1419 1417 1416 1414 1413 1410 1409 1407 1405 1402 1401 1400 1398 1397 1395 1394 1393 1391 1390 1389 1388 1386 1385 1384 1383 1382 1381 1381 1381 1380 1380
1487 1486 1484 1481 1480 1478 1476 1474 1472 1470 1468 1466 1464 1462 1460 1458 1456 1454 1452 1451 1450 1448 1446 1445 1443 1442 1440 1439 1437 1436 1434 1432 1431 1429 1427 1426 1424 1422 1420 1417 1416 1415 1414 1411 1411 1409 1406 1403 1402 1401 1400 1398 1396 1395 1394 1393 1391 1390 1389 1388 1386 1385 1384 1382 1382 1381 1381 1381 1380
1487 1485 1483 1481 1479 1477 1476 1474 1472 1470 1468 1466 1464 1462 1460 1458 1456 1454 1452 1450 1449 1447 1446 1445 1443 1441 1440 1438 1436 1435 1434 1432 1431 1429 1428 1426 1424 1422 1420 1418 1417 1416 1414 1412 1412 1410 1406 1405 1403 1402 1401 1399 1397 1396 1395 1393 1392 1391 1390 1389 1387 1386 1384 1383 1382 1382 1381 1381 1381
1486 1484 1482 1480 1479 1477 1475 1473 1471 1469 1467 1465 1463 1461 1459 1457 1455 1453 1451 1450 1448 1447 1446 1444 1443 1441 1440 1438 1436 1435 1434 1432 1431 1429 1428 1426 1424 1422 1421 1419 1418 1416 1415 1415 1412 1410 1407 1406 1405 1403 1401 1400 1398 1397 1396 1394 1393 1392 1391 1390 1388 1387 1385 1384 1383 1382 1382 1381 1381
1486 1484 1482 1480 1478 1477 1475 1473 1471 1469 1467 1465 1463 1461 1459 1457 1455 1453 1451 1449 1447 1446 1445 1444 1442 1441 1439 1438 1436 1435 1434 1432 1431 1430 1428 1427 1424 1423 1421 1420 1418 1416 1415 1416 1412 1410 1409 1407 1405 1404 1402 1401 1399 1398 1396 1395 1394 1393 1392 1391 1389 1388 1386 1385 1384 1383 1382 1381 1381
1486 1484 1482 1480 1478 1476 1475 1473 1471 1469 1467 1465 1463 1461 1459 1457 1455 1452 1450 1449 1447 1446 1444 1443 1442 1441 1439 1438 1436 1435 1433 1432 1431 1430 1428 1426 1424 1423 1421 1420 1418 1416 1415 1415 1413 1411 1410 1408 1406 1404 1402 1401 1400 1399 1397 1396 1395 1394 1393 1392 1391 1390 1388 1387 1386 1385 1383 1382 1382
1486 1484 1482 1480 1478 1477 1475 1473 1471 1469 1467 1465 1463 1461 1458 1456 1454 1452 1450 1448 1447 1446 1444 1443 1442 1441 1439 1438 1436 1435 1433 1432 1431 1430 1428 1426 1424 1422 1421 1421 1418 1415 1413 1414 1414 1412 1411 1408 1406 1404 1403 1402 1400 1399 1398 1397 1396 1395 1394 1393 1392 1391 1390 1388 1387 1386 1385 1383 1383
1486 1484 1482 1480 1479 1477 1475 1473 1471 1469 1467 1465 1463 1460 1458 1456 1454 1452 1450 1448 1447 1446 1444 1443 1441 1440 1439 1438 1436 1435 1433 1432 1431 1430 1428 1426 1424 1422 1421 1421 1420 1416 1414 1414 1414 1413 1411 1409 1406 1405 1403 1402 1401 1399 1398 1397 1396 1396 1395 1394 1394 1392 1391 1390 1388 1387 1386 1385 1384
1486 1484 1482 1481 1479 1477 1475 1473 1471 1469 1467 1465 1462 1460 1458 1456 1454 1452 1450 1448 1447 1445 1444 1442 1441 1440 1439 1437 1436 1435 1433 1432 1431 1430 1428 1426 1424 1423 1422 1421 1420 1417 1415 1414 1414 1413 1411 1410 1407 1405 1403 1402 1401 1399 1398 1397 1397 1396 1396 1395 1395 1394 1392 1391 1390 1389 1388 1387 1386
1486 1484 1482 1481 1479 1477 1475 1473 1471 1469 1467 1465 1462 1460 1458 1456 1454 1452 1450 1448 1447 1445 1444 1442 1441 1440 1439 1438 1436 1435 1434 1432 1431 1430 1428 1426 1425 1423 1422 1421 1420 1418 1416 1415 1415 1413 1411 1410 1408 1406 1404 1402 1401 1400 1399 1398 1397 1397 1396 1396 1395 1395 1394 1393 1392 1391 1390 1389 1389
1486 1484 1482 1481 1479 1477 1475 1473 1472 1469 1467 1465 1462 1460 1458 1456 1454 1452 1450 1448 1447 1446 1444 1443 1441 1440 1439 1438 1436 1435 1434 1432 1431 1430 1428 1427 1425 1424 1422 1421 1420 1418 1417 1415 1415 1414 1412 1410 1408 1406 1405 1403 1401 1400 1399 1398 1398 1397 1397 1396 1396 1395 1394 1393 1393 1392 1391 1391 1391
1486 1484 1482 1481 1479 1477 1475 1474 1472 1469 1466 1464 1462 1460 1458 1456 1454 1452 1451 1449 1447 1446 1445 1443 1442 1441 1439 1438 1436 1436 1435 1433 1431 1430 1429 1427 1425 1424 1423 1421 1420 1419 1418 1416 1414 1414 1413 1411 1409 1407 1405 1404 1402 1401 1400 1399 1399 1398 1398 1397 1396 1396 1395 1394 1393 1393 1392 1392 1392
1486 1484 1483 1481 1479 1477 1475 1474 1471 1469 1466 1464 1462 1460 1458 1456 1454 1453 1451 1449 1448 1446 1445 1443 1442 1441 1439 1438 1436 1436 1435 1433 1432 1431 1429 1427 1426 1424 1423 1422 1420 1419 1418 1417 1414 1414 1413 1412 1408 1406 1406 1404 1403 1402 1401 1400 1399 1399 1398 1397 1397 1396 1395 1395 1394 1393 1393 1393 1393
1486 1484 1483 1481 1479 1477 1476 1474 1471 1469 1466 1464 1462 1460 1458 1456 1454 1453 1451 1450 1448 1447 1446 1444 1442 1441 1440 1439 1437 1436 1436 1434 1432 1431 1430 1428 1426 1425 1423 1422 1421 1419 1418 1417 1416 1414 1413 1412 1409 1407 1406 1405 1403 1402 1401 1401 1400 1399 1399 1398 1398 1397 1396 1396 1395 1394 1394 1394 1394
1486 1485 1483 1481 1479 1477 1475 1473 1471 1469 1467 1465 1462 1461 1459 1456 1455 1453 1452 1451 1449 1448 1446 1445 1443 1442 1441 1439 1438 1437 1436 1434 1433 1431 1430 1429 1427 1425 1424 1423 1421 1420 1418 1417 1416 1415 1414 1413 1411 1408 1406 1405 1404 1403 1403 1402 1401 1400 1400 1399 1399 1398 1397 1397 1396 1396 1396 1395 1396
1486 1485 1483 1481 1479 1477 1476 1474 1471 1469 1467 1465 1463 1461 1459 1457 1455 1454 1452 1451 1450 1449 1447 1446 1444 1442 1441 1440 1439 1437 1436 1435 1433 1432 1431 1429 1428 1426 1425 1423 1422 1421 1419 1418 1417 1416 1415 1414 1413 1410 1407 1406 1405 1405 1404 1403 1402 1401 1401 1400 1400 1399 1399 1398 1398 1397 1397 1397 1397
1486 1485 1483 1481 1479 1477 1476 1474 1472 1470 1468 1465 1463 1461 1459 1457 1456 1454 1453 1452 1451 1449 1448 1446 1445 1443 1442 1441 1440 1438 1436 1435 1434 1432 1431 1430 1428 1427 1426 1424 1422 1421 1420 1419 1418 1417 1417 1416 1415 1411 1408 1407 1406 1406 1405 1405 1404 1403 1402 1402 1401 1401 1400 1400 1400 1399 1399 1399 1398
1486 1484 1483 1481 1479 1477 1476 1474 1472 1470 1468 1466 1464 1461 1460 1458 1456 1455 1453 1452 1451 1450 1448 1447 1445 1444 1443 1441 1440 1439 1437 1436 1434 1433 1431 1430 1429 1427 1426 1424 1423 1421 1421 1420 1419 1418 1418 1418 1416 1412 1409 1409 1408 1407 1407 1406 1405 1405 1404 1403 1403 1402 1402 1401 1401 1401 1401 1400 1400